Location: Unspecified
(42.9300°N, 71.1866°W)
Time: 15:22:09
(UTC-04:00)

Hubble Space Telescope - Visible Passes

Search period start: 01 May 2016 00:00
Search period end: 11 May 2016 00:00
Orbit: 539 x 543 km, 28.5° (Epoch: 30 April)

Date Brightness Start Highest point End Pass type
(mag) Time Alt. Az. Time Alt. Az. Time Alt. Az.
03 May 3.0 05:01:20 10° SSW 05:02:21 11° S 05:03:21 10° SSE visible
04 May 3.0 04:51:43 10° SSW 04:52:34 11° S 04:53:24 10° S visible
05 May 3.0 04:42:36 10° S 04:42:47 10° S 04:42:59 10° S visible
